N395T KACK-KISP

Flight info

Callsign N395T
Flight time 0h 44m
Altitude 10000
Route MVY V374 GON CCC
Aircraft PC12/L-SDFGRWY/S

Departure

Time 2026-04-30 19:54
Airport Nantucket Memorial Airport (KACK)

Arrival

Time 2026-04-30 20:38
Airport Long Island MacArthur Airport (KISP)
Time Latitude Longitude Altitude Speed Heading
2026-04-30 19:19 41.25593 -70.06475 46 ft 0 kts 317°
2026-04-30 19:46 41.25602 -70.06487 46 ft 5 kts 308°
2026-04-30 19:46 41.25580 -70.06537 46 ft 7 kts 228°
2026-04-30 19:46 41.25578 -70.06539 46 ft 0 kts 228°
2026-04-30 19:47 41.25578 -70.06540 46 ft 1 kts 228°
2026-04-30 19:47 41.25528 -70.06595 45 ft 7 kts 170°
2026-04-30 19:47 41.25500 -70.06570 45 ft 0 kts 134°
2026-04-30 19:48 41.25465 -70.06523 44 ft 11 kts 135°
2026-04-30 19:48 41.25458 -70.06449 44 ft 11 kts 46°
2026-04-30 19:49 41.25497 -70.06396 45 ft 15 kts 46°
2026-04-30 19:49 41.25702 -70.06122 49 ft 19 kts 45°
2026-04-30 19:49 41.25798 -70.05997 49 ft 20 kts 44°
2026-04-30 19:50 41.25864 -70.05911 50 ft 20 kts 46°
2026-04-30 19:50 41.25934 -70.05817 50 ft 9 kts 45°
2026-04-30 19:50 41.25972 -70.05767 50 ft 7 kts 45°
2026-04-30 19:50 41.25977 -70.05722 52 ft 4 kts 136°
2026-04-30 19:51 41.25968 -70.05711 52 ft 0 kts 135°
2026-04-30 19:51 41.25968 -70.05710 52 ft 0 kts 135°
2026-04-30 19:52 41.25964 -70.05706 52 ft 4 kts 135°
2026-04-30 19:52 41.25917 -70.05660 51 ft 11 kts 174°
2026-04-30 19:53 41.25824 -70.05759 49 ft 32 kts 226°
2026-04-30 19:53 41.25527 -70.06152 48 ft 85 kts 224°
2026-04-30 19:53 41.25048 -70.06763 255 ft 103 kts 221°
2026-04-30 19:53 41.24479 -70.07469 617 ft 121 kts 225°
2026-04-30 19:54 41.23976 -70.08465 1073 ft 138 kts 248°
2026-04-30 19:54 41.23694 -70.09720 1655 ft 144 kts 254°
2026-04-30 19:54 41.23656 -70.11089 2057 ft 159 kts 285°
2026-04-30 19:54 41.24103 -70.12487 2430 ft 169 kts 291°
2026-04-30 19:55 41.24595 -70.13951 2792 ft 176 kts 290°
2026-04-30 19:55 41.25079 -70.15444 3163 ft 179 kts 289°
2026-04-30 19:55 41.25568 -70.16972 3560 ft 180 kts 288°
2026-04-30 19:55 41.26059 -70.18509 3967 ft 181 kts 288°
2026-04-30 19:56 41.26553 -70.20054 4381 ft 181 kts 287°
2026-04-30 19:56 41.27047 -70.21602 4782 ft 183 kts 287°
2026-04-30 19:56 41.27546 -70.23168 5182 ft 184 kts 286°
2026-04-30 19:56 41.28051 -70.24751 5516 ft 188 kts 286°
2026-04-30 19:57 41.28567 -70.26370 5856 ft 191 kts 285°
2026-04-30 19:57 41.29088 -70.28002 6193 ft 193 kts 285°
2026-04-30 19:57 41.29615 -70.29656 6506 ft 194 kts 285°
2026-04-30 19:57 41.30143 -70.31316 6818 ft 195 kts 285°
2026-04-30 19:58 41.30673 -70.32983 7144 ft 196 kts 285°
2026-04-30 19:58 41.31200 -70.34639 7454 ft 197 kts 285°
2026-04-30 19:58 41.31732 -70.36314 7779 ft 197 kts 285°
2026-04-30 19:58 41.32265 -70.37993 8109 ft 197 kts 285°
2026-04-30 19:59 41.32799 -70.39674 8442 ft 197 kts 285°
2026-04-30 19:59 41.33330 -70.41351 8775 ft 196 kts 285°
2026-04-30 19:59 41.34390 -70.44697 9464 ft 196 kts 284°
2026-04-30 20:00 41.34923 -70.46381 9795 ft 197 kts 284°
2026-04-30 20:00 41.35457 -70.48076 9975 ft 204 kts 285°
2026-04-30 20:00 41.36021 -70.49873 9981 ft 216 kts 285°
2026-04-30 20:00 41.36609 -70.51731 9982 ft 223 kts 285°
2026-04-30 20:01 41.37836 -70.55602 9987 ft 230 kts 286°
2026-04-30 20:01 41.38457 -70.57572 9990 ft 231 kts 286°
2026-04-30 20:01 41.39082 -70.59556 9983 ft 232 kts 285°
2026-04-30 20:02 41.39536 -70.63601 9987 ft 219 kts 261°
2026-04-30 20:02 41.39444 -70.65629 9986 ft 220 kts 261°
2026-04-30 20:03 41.39282 -70.69683 9992 ft 221 kts 262°
2026-04-30 20:03 41.39201 -70.71729 9987 ft 221 kts 262°
2026-04-30 20:03 41.39118 -70.73778 9987 ft 221 kts 262°
2026-04-30 20:03 41.39034 -70.75823 9989 ft 221 kts 262°
2026-04-30 20:04 41.38951 -70.77868 9989 ft 221 kts 262°
2026-04-30 20:04 41.38868 -70.79906 9993 ft 221 kts 262°
2026-04-30 20:04 41.38783 -70.81948 9997 ft 221 kts 262°
2026-04-30 20:05 41.38614 -70.86032 9999 ft 221 kts 262°
2026-04-30 20:05 41.38529 -70.88070 10000 ft 221 kts 262°
2026-04-30 20:05 41.38358 -70.92149 10003 ft 220 kts 262°
2026-04-30 20:06 41.38272 -70.94190 10001 ft 220 kts 262°
2026-04-30 20:06 41.38185 -70.96231 10005 ft 220 kts 262°
2026-04-30 20:06 41.38100 -70.98243 10006 ft 220 kts 262°
2026-04-30 20:06 41.38012 -71.00285 10007 ft 220 kts 261°
2026-04-30 20:07 41.37925 -71.02321 10008 ft 220 kts 262°
2026-04-30 20:07 41.37837 -71.04352 10009 ft 220 kts 261°
2026-04-30 20:07 41.37661 -71.08420 10011 ft 220 kts 261°
2026-04-30 20:08 41.37572 -71.10451 10009 ft 220 kts 261°
2026-04-30 20:08 41.37483 -71.12484 10013 ft 220 kts 261°
2026-04-30 20:08 41.37394 -71.14512 10013 ft 220 kts 261°
2026-04-30 20:08 41.37305 -71.16516 10005 ft 220 kts 261°
2026-04-30 20:09 41.37214 -71.18575 10008 ft 220 kts 261°
2026-04-30 20:09 41.37124 -71.20580 10006 ft 220 kts 261°
2026-04-30 20:09 41.36942 -71.24659 10001 ft 220 kts 261°
2026-04-30 20:10 41.36758 -71.28726 10001 ft 220 kts 261°
2026-04-30 20:10 41.36665 -71.30758 10001 ft 220 kts 261°
2026-04-30 20:10 41.36572 -71.32792 10004 ft 220 kts 261°
2026-04-30 20:11 41.36385 -71.36859 10003 ft 220 kts 261°
2026-04-30 20:11 41.36292 -71.38886 10000 ft 220 kts 261°
2026-04-30 20:11 41.36197 -71.40920 10015 ft 220 kts 261°
2026-04-30 20:12 41.36009 -71.44958 10016 ft 220 kts 262°
2026-04-30 20:12 41.35914 -71.46991 10014 ft 220 kts 262°
2026-04-30 20:12 41.35818 -71.49030 10014 ft 221 kts 261°
2026-04-30 20:13 41.35722 -71.51068 10013 ft 221 kts 261°
2026-04-30 20:13 41.35626 -71.53109 10013 ft 220 kts 261°
2026-04-30 20:13 41.35529 -71.55144 10013 ft 220 kts 262°
2026-04-30 20:13 41.35432 -71.57177 10009 ft 220 kts 261°
2026-04-30 20:14 41.35335 -71.59212 10008 ft 220 kts 261°
2026-04-30 20:14 41.35239 -71.61221 10005 ft 221 kts 262°
2026-04-30 20:14 41.35140 -71.63266 10010 ft 221 kts 262°
2026-04-30 20:14 41.35041 -71.65313 10006 ft 221 kts 262°
2026-04-30 20:15 41.34942 -71.67356 10008 ft 221 kts 262°
2026-04-30 20:15 41.34843 -71.69401 10010 ft 221 kts 262°
2026-04-30 20:15 41.34742 -71.71450 10008 ft 222 kts 262°
2026-04-30 20:15 41.34642 -71.73494 10008 ft 222 kts 262°
2026-04-30 20:16 41.34541 -71.75546 10007 ft 222 kts 262°
2026-04-30 20:16 41.34440 -71.77597 10009 ft 222 kts 262°
2026-04-30 20:16 41.34338 -71.79652 10009 ft 222 kts 262°
2026-04-30 20:16 41.34236 -71.81706 10008 ft 222 kts 262°
2026-04-30 20:17 41.34133 -71.83756 10007 ft 222 kts 262°
2026-04-30 20:17 41.34031 -71.85804 10009 ft 222 kts 262°
2026-04-30 20:17 41.33927 -71.87850 10010 ft 222 kts 262°
2026-04-30 20:17 41.33823 -71.89903 10007 ft 222 kts 262°
2026-04-30 20:18 41.33719 -71.91954 10008 ft 222 kts 262°
2026-04-30 20:18 41.33615 -71.94005 10008 ft 222 kts 262°
2026-04-30 20:18 41.33510 -71.96056 10009 ft 222 kts 262°
2026-04-30 20:18 41.33404 -71.98109 10007 ft 222 kts 262°
2026-04-30 20:19 41.33299 -72.00155 10012 ft 222 kts 262°
2026-04-30 20:19 41.33228 -72.01522 10006 ft 223 kts 262°
2026-04-30 20:19 41.33077 -72.04249 10011 ft 221 kts 259°
2026-04-30 20:19 41.32552 -72.06119 10009 ft 215 kts 236°
2026-04-30 20:20 41.31689 -72.07755 10007 ft 216 kts 233°
2026-04-30 20:20 41.30816 -72.09378 10009 ft 217 kts 234°
2026-04-30 20:20 41.29942 -72.11022 10007 ft 217 kts 234°
2026-04-30 20:20 41.29070 -72.12667 10006 ft 219 kts 234°
2026-04-30 20:21 41.28188 -72.14328 10006 ft 221 kts 234°
2026-04-30 20:21 41.27299 -72.15999 10009 ft 222 kts 234°
2026-04-30 20:21 41.26406 -72.17676 10010 ft 222 kts 234°
2026-04-30 20:21 41.25512 -72.19355 10013 ft 223 kts 234°
2026-04-30 20:22 41.24615 -72.21040 10008 ft 223 kts 234°
2026-04-30 20:22 41.23729 -72.22702 10014 ft 223 kts 234°
2026-04-30 20:22 41.22830 -72.24387 10012 ft 223 kts 234°
2026-04-30 20:22 41.21934 -72.26068 10015 ft 223 kts 234°
2026-04-30 20:23 41.21034 -72.27754 10012 ft 224 kts 234°
2026-04-30 20:23 41.20132 -72.29443 10016 ft 224 kts 234°
2026-04-30 20:23 41.19230 -72.31130 10018 ft 224 kts 234°
2026-04-30 20:23 41.18329 -72.32814 10014 ft 224 kts 234°
2026-04-30 20:24 41.17428 -72.34498 10010 ft 224 kts 234°
2026-04-30 20:24 41.16523 -72.36189 10011 ft 224 kts 234°
2026-04-30 20:24 41.15621 -72.37874 10015 ft 224 kts 234°
2026-04-30 20:24 41.14729 -72.39537 10015 ft 224 kts 234°
2026-04-30 20:25 41.12917 -72.42915 10013 ft 224 kts 234°
2026-04-30 20:25 41.12013 -72.44600 10013 ft 224 kts 234°
2026-04-30 20:26 41.10203 -72.47968 10017 ft 224 kts 234°
2026-04-30 20:26 41.08393 -72.51333 10015 ft 224 kts 234°
2026-04-30 20:26 41.07485 -72.53020 10017 ft 223 kts 234°
2026-04-30 20:27 41.05753 -72.56238 10020 ft 208 kts 235°
2026-04-30 20:27 41.04066 -72.59379 9582 ft 216 kts 237°
2026-04-30 20:28 41.02803 -72.63090 8713 ft 228 kts 247°
2026-04-30 20:28 41.01471 -72.66953 7789 ft 233 kts 245°
2026-04-30 20:29 41.00043 -72.70859 6759 ft 236 kts 245°
2026-04-30 20:30 40.97922 -72.76575 5538 ft 227 kts 245°
2026-04-30 20:30 40.95900 -72.82210 4125 ft 223 kts 246°
2026-04-30 20:31 40.94189 -72.87783 3009 ft 212 kts 251°
2026-04-30 20:32 40.92605 -72.92664 3001 ft 173 kts 243°
2026-04-30 20:32 40.91255 -72.94825 3000 ft 135 kts 229°
2026-04-30 20:33 40.90616 -72.95696 3000 ft 136 kts 229°
2026-04-30 20:33 40.89166 -72.97643 2628 ft 151 kts 227°
2026-04-30 20:33 40.88424 -72.98622 2425 ft 163 kts 227°
2026-04-30 20:34 40.86777 -73.00797 1954 ft 159 kts 227°
2026-04-30 20:34 40.85306 -73.02739 1552 ft 139 kts 227°
2026-04-30 20:35 40.84870 -73.03315 1427 ft 128 kts 228°
2026-04-30 20:35 40.84280 -73.04089 1258 ft 112 kts 229°
2026-04-30 20:35 40.83180 -73.05538 908 ft 109 kts 226°
2026-04-30 20:36 40.82702 -73.06183 755 ft 97 kts 227°
2026-04-30 20:36 40.82235 -73.06787 618 ft 95 kts 224°
2026-04-30 20:36 40.81314 -73.08009 426 ft 93 kts 225°
2026-04-30 20:37 40.80862 -73.08606 291 ft 92 kts 224°
2026-04-30 20:37 40.80411 -73.09205 193 ft 91 kts 224°
2026-04-30 20:37 40.79976 -73.09778 105 ft 85 kts 224°
2026-04-30 20:37 40.79594 -73.10285 87 ft 68 kts 224°
2026-04-30 20:38 40.79357 -73.10596 88 ft 21 kts 225°
2026-04-30 20:38 40.79312 -73.10663 87 ft 8 kts 250°
2026-04-30 20:38 40.79352 -73.10717 86 ft 13 kts 356°
2026-04-30 20:39 40.79587 -73.10719 86 ft 19 kts
2026-04-30 20:39 40.79722 -73.10719 87 ft 16 kts
2026-04-30 20:39 40.79797 -73.10727 86 ft 8 kts 315°
2026-04-30 20:40 40.79804 -73.10885 85 ft 6 kts 270°
2026-04-30 20:40 40.79823 -73.10913 85 ft 4 kts 63°
2026-04-30 20:40 40.79824 -73.10900 85 ft 0 kts 89°